Wind_Speed
4 5 3 6 4 3 4 6 10 14 10 2 4 2 11 11 10 12 10 11 11 11 14 21 25 25 18 16 15 26 22 20 19 15 14 14 12 12 16 17 12 11 8 13
1 1 4 6 3 2 3 6 10 12 5 4 2 6 6 14 13 16 16 13 13 10 12 19 25 26 30 24 23 24 23 21 18 19 18 11 11 10 10 16 15 11 10 12
4 6 1 2 3 11 6 5 7 7 8 12 3 11 7 14 10 9 11 11 11 14 12 16 23 24 26 28 25 23 25 24 22 20 15 7 9 9 13 19 14 11 13 10
3 5 5 7 8 6 4 7 7 5 1 2 8 4 4 13 13 12 13 12 12 13 9 10 19 15 21 30 30 27 29 25 20 18 16 11 10 10 10 18 13 14 12 10
8 5 6 7 7 13 9 10 4 2 6 5 11 2 5 7 10 12 14 15 14 13 14 13 13 22 28 33 33 31 28 25 22 18 17 13 13 10 6 11 15 9 11 11
7 2 5 6 12 19 3 1 6 6 2 4 4 3 5 4 4 17 15 17 17 17 15 13 20 27 32 36 32 33 29 27 25 22 20 18 15 12 7 7 13 12 11 12
4 6 4 9 7 11 3 6 3 5 5 1 9 1 7 9 3 11 18 18 19 17 16 15 13 16 26 28 29 31 31 30 28 26 22 20 16 15 13 7 12 8 8 11
3 7 10 9 8 7 5 7 5 3 3 4 6 4 8 15 22 14 15 21 19 16 14 18 19 23 25 30 30 31 30 33 30 28 25 23 18 15 14 12 9 10 6 9
5 5 4 6 7 7 3 4 2 8 4 4 7 6 11 11 10 9 12 16 18 18 17 18 21 24 25 28 32 36 35 35 32 29 26 22 20 19 16 14 13 9 6 7
5 3 6 3 5 4 7 10 3 3 5 3 7 7 7 9 6 2 7 12 19 18 18 16 16 24 28 31 40 38 39 36 33 29 26 22 20 20 18 16 13 11 8 8
4 3 6 4 5 9 3 3 4 6 4 5 3 6 9 11 8 8 11 12 17 19 18 18 17 27 30 32 31 35 35 33 29 27 23 21 21 19 19 17 15 8 7 7
1 5 1 4 8 5 5 6 5 5 5 2 1 6 6 8 7 8 14 13 15 15 17 18 19 25 24 28 29 30 32 31 27 23 22 21 20 20 19 19 19 15 9 8
2 2 4 9 7 4 2 1 3 7 4 6 5 6 6 6 4 9 8 11 10 10 9 8 10 13 21 24 29 31 31 29 23 20 14 13 20 21 21 20 18 18 16 14
6 3 6 5 9 3 7 6 8 7 4 7 6 7 7 6 7 8 6 8 8 6 11 12 11 13 19 24 28 32 33 31 26 19 13 8 15 23 23 18 16 15 17 15
5 2 5 4 7 3 4 4 7 5 4 7 9 9 12 8 10 10 6 7 7 6 9 14 14 12 19 25 29 32 38 31 23 19 18 16 16 21 23 19 18 16 13 13
5 3 5 7 7 9 5 9 6 7 10 4 2 10 10 7 6 6 9 8 7 7 9 8 8 13 20 25 27 29 28 25 15 12 15 15 17 22 18 17 13 14 16 14
2 2 4 6 5 7 5 4 3 5 6 9 5 11 8 7 7 9 10 9 9 8 7 8 9 11 21 26 25 23 24 17 14 16 16 15 21 23 22 20 17 21 19 17
6 1 4 4 5 4 8 4 10 9 6 6 3 4 10 13 14 6 11 12 12 11 9 8 7 13 20 25 28 26 24 23 22 19 20 21 26 27 23 22 23 23 22 20
10 4 2 3 4 6 9 4 2 4 5 5 4 3 7 3 6 2 10 14 13 11 11 13 20 24 23 29 29 28 20 17 17 17 20 20 21 21 22 24 27 24 22 19
4 2 5 3 3 6 6 21 13 4 5 26 23 19 6 3 5 9 14 14 11 14 20 20 23 24 27 28 30 28 23 21 18 19 20 17 16 21 23 25 25 24 20 17
6 5 2 4 4 2 18 21 8 7 10 26 25 18 9 7 6 5 8 8 13 19 19 25 24 22 25 29 28 25 23 20 19 19 20 21 22 24 24 25 24 21 19 17
2 2 3 3 3 1 21 9 8 6 15 21 18 17 9 9 2 6 14 10 14 16 20 26 25 26 27 32 29 25 22 22 23 24 24 27 28 28 27 25 22 20 19 17
4 4 2 2 2 4 6 4 5 10 15 17 12 15 8 10 11 4 10 10 9 8 18 27 28 27 28 32 31 26 28 29 28 27 27 27 26 25 25 24 23 21 19 19
7 3 3 6 5 9 13 8 15 16 13 20 13 14 11 5 10 3 8 10 14 22 12 20 26 26 23 30 31 30 30 29 30 29 28 27 26 24 22 21 22 20 20 18
5 6 3 6 8 14 2 9 13 19 17 19 18 16 15 8 7 6 7 9 13 20 8 14 24 26 26 32 32 35 34 33 31 31 28 26 26 24 22 19 20 20 20 21
4 6 3 8 8 10 11 16 15 14 18 18 22 23 22 2 6 2 7 8 15 19 26 21 24 29 31 33 33 35 37 35 35 31 27 27 28 24 22 19 14 15 15 17
Wind_Direction
15 47 81 149 163 173 203 287 304 284 297 3 233 50 173 163 148 147 155 160 166 168 158 179 184 188 192 170 187 206 179 180 189 206 215 233 244 244 215 219 212 209 213 200
335 319 138 102 167 120 243 219 267 293 222 230 337 297 223 175 175 172 168 178 173 160 156 176 190 193 195 187 192 190 191 187 194 201 215 222 211 204 187 191 204 201 203 201
159 238 77 76 50 352 321 263 274 235 284 212 172 217 222 202 179 173 181 176 179 179 179 182 195 189 193 200 188 184 188 192 197 207 215 218 161 158 170 186 201 206 200 204
20 295 181 134 118 228 317 263 156 244 133 145 37 277 247 179 196 184 180 181 188 186 197 178 198 192 185 187 188 190 192 199 207 209 208 195 201 194 191 192 210 206 202 210
243 203 196 161 185 177 228 253 301 195 107 93 351 55 262 125 204 200 193 186 193 191 191 186 180 189 195 192 195 199 206 209 215 214 216 221 231 206 172 204 207 215 206 218
263 277 169 137 195 193 207 254 9 20 35 68 278 132 287 220 216 200 194 191 187 192 196 198 187 191 198 202 205 205 211 213 214 215 216 222 229 211 196 216 223 222 234 227
282 233 123 156 172 203 190 62 351 1 13 222 328 41 245 259 277 221 199 188 187 187 192 194 201 188 194 200 204 210 213 219 220 220 220 219 216 223 221 231 220 236 252 255
213 327 169 180 176 163 168 145 154 129 348 310 354 343 281 293 286 251 183 182 185 188 188 196 201 198 191 195 200 207 216 222 222 221 223 216 215 219 212 216 229 220 243 310
154 270 257 161 145 145 203 67 124 103 359 26 318 293 289 277 0 154 166 171 185 192 187 189 200 194 193 192 198 208 216 222 225 221 218 214 213 216 212 215 228 245 253 256
230 284 216 183 113 25 166 158 83 30 108 65 275 279 237 296 332 109 191 185 188 192 195 195 199 193 193 192 201 206 214 217 218 218 217 215 214 217 219 221 227 242 256 217
195 124 289 113 201 171 94 205 71 111 112 154 229 249 217 220 251 224 194 196 186 196 194 196 200 200 186 191 192 201 206 209 211 212 215 218 217 214 215 219 216 235 197 187
209 127 323 271 279 174 107 162 146 120 223 219 187 274 122 206 230 263 246 188 201 192 191 194 193 193 186 186 187 191 198 203 207 205 208 217 224 226 221 224 225 224 225 220
210 30 7 350 0 8 280 86 107 100 106 191 165 256 189 146 289 277 147 188 189 193 168 159 144 155 167 170 175 182 189 192 191 196 201 219 228 229 230 228 227 226 220 213
44 100 151 183 227 210 313 178 176 128 132 164 235 254 241 202 202 258 150 146 159 161 163 161 156 157 152 159 166 172 181 186 189 194 207 230 240 227 228 226 222 222 218 224
41 354 342 286 239 267 282 180 210 205 158 165 221 234 258 197 195 213 215 146 143 152 152 167 154 151 151 159 174 178 184 191 205 219 235 245 245 232 224 224 226 229 217 177
358 290 32 316 325 355 317 330 216 194 199 284 193 245 261 237 119 171 217 149 159 163 172 153 133 148 157 163 176 183 193 208 235 252 220 232 239 219 209 213 198 193 174 146
274 54 26 281 342 340 1 291 231 257 177 174 170 226 265 242 189 185 215 164 162 163 171 169 154 153 151 171 172 184 197 205 200 225 213 211 192 175 161 161 156 148 149 146
248 142 160 248 17 343 238 283 255 216 287 261 273 201 225 224 215 160 209 166 165 162 170 177 153 167 162 160 168 172 176 182 182 166 159 162 164 154 150 147 144 148 150 150
202 171 239 166 184 270 303 283 286 188 263 236 185 290 200 128 84 311 206 177 172 161 171 182 180 168 174 170 168 163 152 154 165 171 161 160 172 163 154 143 147 152 151 148
70 184 152 130 166 226 334 332 293 147 221 2 331 292 211 130 158 232 197 179 166 166 166 169 176 169 176 175 168 157 155 161 165 174 171 170 178 156 153 152 151 152 151 152
335 344 196 184 208 279 337 332 325 62 322 324 338 304 283 149 203 268 147 169 167 174 170 163 162 149 155 163 165 150 151 154 154 156 155 159 160 152 156 151 154 154 153 151
39 340 339 339 185 274 352 23 51 307 320 322 343 1 344 323 290 184 167 160 165 171 155 151 144 142 148 153 153 149 152 152 156 154 156 153 150 154 153 154 157 156 155 157
44 121 249 108 248 163 25 74 1 338 326 328 325 345 330 332 315 347 147 120 89 125 152 151 148 143 150 156 159 154 155 154 151 149 146 148 153 156 158 159 163 163 167 164
341 39 358 357 306 345 340 357 343 339 329 330 340 323 315 315 302 50 112 115 105 92 270 161 144 144 147 159 162 160 162 160 156 153 154 156 159 161 164 167 172 175 177 179
246 337 290 259 295 318 177 344 338 326 336 335 320 322 305 268 275 188 171 180 141 142 196 220 152 148 151 156 161 161 163 161 158 157 158 166 167 170 169 174 181 187 192 194
195 256 295 290 284 276 295 319 321 320 323 337 331 331 337 193 248 322 202 204 164 146 168 194 163 153 152 155 159 164 166 167 161 159 167 175 178 178 179 184 198 209 218 220
Height
784 795 798 800 796 795 803 804 810 792 785 784 785 783 777 771 774 781 784 785 785 786 787 786 789 790 795 799 803 806 806 807 809 810 813 814 815 815 816 817 818 819 819 820
787 795 787 789 794 797 800 804 800 787 782 787 787 789 773 771 773 773 778 782 781 784 788 789 787 790 794 798 804 804 805 806 807 808 810 813 813 812 814 815 817 818 818 819
786 780 779 794 796 799 801 802 795 794 775 773 781 793 782 774 770 773 774 775 776 778 785 789 791 792 796 798 799 800 803 805 806 808 809 811 812 813 815 816 817 818 818 819
777 763 774 791 792 799 817 773 767 777 793 811 790 824 787 779 779 776 775 775 776 776 779 783 787 789 791 792 795 797 800 802 804 806 809 811 811 812 813 814 815 816 817 818
776 772 778 788 786 786 791 767 767 767 797 805 810 819 793 779 789 779 773 772 772 772 774 779 782 786 789 790 791 794 797 798 801 805 807 809 810 811 811 812 813 815 816 817
773 751 761 773 765 769 762 776 787 791 804 837 829 823 809 789 776 770 765 764 766 769 771 773 778 782 784 786 789 792 793 795 799 803 805 807 808 810 811 812 812 814 815 815
767 761 756 753 770 769 772 805 839 831 838 836 821 817 800 771 759 760 759 759 759 763 767 770 774 778 780 784 787 789 791 793 796 799 802 804 807 809 810 811 811 813 815 814
789 792 757 745 758 771 785 801 829 848 846 840 819 826 796 759 746 739 741 747 752 756 760 764 766 771 776 780 784 786 788 789 792 796 799 802 805 807 809 811 812 813 812 810
793 783 741 735 741 750 778 803 796 830 836 842 835 812 777 754 740 735 742 746 750 752 753 756 760 765 769 775 778 780 782 784 788 791 796 799 801 803 805 807 809 811 812 811
753 782 747 736 740 750 760 777 810 818 851 860 841 828 817 774 757 745 746 747 744 745 748 751 754 758 762 766 768 774 776 779 783 788 793 796 797 800 803 804 806 808 809 809
742 763 761 745 756 768 778 788 792 798 814 847 845 818 771 761 752 747 739 735 737 739 741 746 750 752 756 760 767 770 774 777 781 785 790 793 795 797 799 801 804 806 807 809
730 768 780 759 737 732 750 767 776 803 827 826 825 802 745 744 742 742 736 726 726 729 736 738 740 747 753 755 761 766 769 774 778 781 784 787 792 796 797 799 803 804 805 807
731 773 799 787 763 749 751 761 768 782 798 819 823 790 731 740 741 733 725 722 723 726 732 736 741 744 746 752 757 762 766 770 776 779 782 785 787 792 795 796 798 800 801 801
737 767 781 806 783 764 760 757 759 770 797 801 799 760 736 736 737 739 724 719 721 723 728 731 736 739 743 748 752 758 762 767 771 774 777 779 783 787 791 793 795 794 796 796
754 773 766 763 761 750 750 750 757 762 770 778 767 766 733 729 732 731 724 723 725 729 726 728 733 736 741 745 750 756 758 761 764 767 772 776 778 783 788 790 792 793 795 796
759 777 768 773 754 753 754 742 742 748 753 751 754 756 723 717 720 726 725 721 727 728 727 728 732 735 739 743 747 751 756 760 763 767 769 772 777 782 786 788 790 791 794 797
769 774 783 790 768 764 775 748 741 735 733 743 766 739 715 717 721 723 726 720 723 726 727 729 731 733 736 742 745 750 755 760 764 768 768 771 775 780 784 786 790 792 795 799
766 773 784 789 780 803 756 730 727 731 725 721 719 718 712 705 696 709 715 713 717 720 725 728 733 736 738 741 746 752 757 761 767 771 770 768 774 779 784 785 791 794 798 800
747 765 781 788 799 773 745 728 727 731 733 714 711 707 706 701 706 711 709 703 708 714 719 724 728 734 739 743 746 750 756 761 766 769 771 773 775 779 783 785 791 797 799 802
751 755 774 784 787 791 755 737 712 713 755 738 738 721 703 702 734 717 698 700 706 710 714 721 728 733 740 744 748 752 757 761 763 769 770 773 778 779 784 788 793 797 800 803
781 776 778 784 781 763 761 738 712 768 785 749 739 722 710 706 707 691 691 700 703 708 712 716 725 732 737 743 748 752 755 760 764 767 770 773 777 780 785 789 794 798 801 804
790 797 796 784 773 779 759 747 775 783 767 754 738 731 728 708 692 687 687 697 702 705 710 717 722 728 738 742 748 752 755 760 765 768 771 774 776 782 787 791 796 799 802 805
801 797 803 795 791 775 772 774 773 769 763 751 738 727 723 719 708 689 686 693 704 713 715 716 722 726 734 740 746 755 757 760 764 768 772 776 781 785 788 792 796 799 802 804
792 786 799 792 771 773 773 768 765 760 756 746 732 729 724 722 712 700 691 695 703 707 736 725 721 726 734 741 746 750 758 759 764 769 775 779 782 787 790 793 795 798 801 803
799 793 794 792 780 770 766 769 766 755 749 744 737 729 722 721 715 700 698 694 696 704 722 732 721 723 731 737 745 749 755 758 764 770 775 780 784 787 789 792 794 796 798 800
788 791 796 790 782 778 770 763 762 756 746 742 738 723 717 720 718 705 701 694 699 695 710 727 721 722 728 735 743 748 751 756 761 767 775 781 784 785 788 790 792 794 796 797